Weather History for KIKK - October, 2012

Change the Weather History Date:

Wednesday, October 17, 2012

  Actual Average Record
Temperature  
Mean Temperature 62 °F -  
Max Temperature 69 °F 63 °F 78 °F (1980)
Min Temperature 53 °F 39 °F 25 °F (1991)
Degree Days  
Heating Degree Days 4    
Growing Degree Days 12 (Base 50)    
Moisture  
Dew Point 52 °F    
Average Humidity 77    
Maximum Humidity 94    
Minimum Humidity 57    
Precipitation  
Precipitation 0.75 in - - ()
Sea Level Pressure  
Sea Level Pressure 29.52 in    
Wind  
Wind Speed 14 mph (South)    
Max Wind Speed 28 mph    
Max Gust Speed 36 mph    
Visibility 9 miles    
Events Rain    
Averages and records for this station are not official NWS values.
T = Trace of Precipitation, MM = Missing Value Source: NWS Daily Summary

Daily Weather History Graph

Daily Weather History Graph

Search for Another Location

Airport or City:

Trip Planner

Search our weather history database for the weather conditions in past years. The results will help you decide how hot, cold, wet, or windy it might be!

Date:

Astronomy

Oct. 17, 2012 Rise Set
Actual Time 7:05 AM CDT 6:06 PM CDT
Civil Twilight 6:37 AM CDT 6:34 PM CDT
Nautical Twilight 6:05 AM CDT 7:06 PM CDT
Astronomical Twilight 5:34 AM CDT 7:38 PM CDT
Moon 9:41 AM CDT (10/17) 7:41 PM CDT (10/17)
Length of Visible Light 11h 56m
Length of Day
11h 01m
Waxing Crescent, 7% of the Moon is Illuminated
Oct 17
Waxing Crescent
Oct 21
First Quarter
Oct 29
Full
Nov 6
Last Quarter
Nov 13
New

Hourly Weather History & Observations

Time (CDT) Temp. Dew Point Humidity Pressure Visibility Wind Dir Wind Speed Gust Speed Precip Events Conditions
12:15 AM 62.6 °F 51.6 °F 67% 29.62 in 10.0 mi South 13.8 mph 18.4 mph N/A   Scattered Clouds
12:35 AM 61.2 °F 51.3 °F 70% 29.63 in 10.0 mi South 11.5 mph - N/A   Scattered Clouds
12:55 AM 60.6 °F 51.1 °F 71% 29.63 in 10.0 mi South 12.7 mph 18.4 mph N/A   Clear
1:15 AM 59.9 °F 50.9 °F 72% 29.63 in 10.0 mi South 13.8 mph - N/A   Clear
1:35 AM 59.0 °F 50.7 °F 74% 29.63 in 10.0 mi South 12.7 mph - N/A   Clear
1:55 AM 58.3 °F 50.4 °F 75% 29.63 in 10.0 mi South 11.5 mph - N/A   Clear
2:15 AM 58.1 °F 50.0 °F 74% 29.63 in 10.0 mi South 11.5 mph - N/A   Clear
2:35 AM 58.1 °F 49.8 °F 74% 29.62 in - South 11.5 mph - N/A   Unknown
2:55 AM 57.7 °F 49.6 °F 74% 29.62 in 10.0 mi South 12.7 mph - N/A   Clear
3:15 AM 57.4 °F 49.5 °F 75% 29.61 in 10.0 mi South 12.7 mph - N/A   Clear
3:35 AM 57.2 °F 49.1 °F 74% 29.61 in 10.0 mi South 12.7 mph 19.6 mph N/A   Clear
3:55 AM 57.0 °F 48.7 °F 74% 29.61 in 10.0 mi South 11.5 mph - N/A   Clear
4:15 AM 56.8 °F 48.4 °F 73% 29.61 in 10.0 mi South 11.5 mph 18.4 mph N/A   Clear
4:35 AM 57.2 °F 48.2 °F 72% 29.60 in 10.0 mi South 15.0 mph 18.4 mph N/A   Clear
4:55 AM 57.2 °F 48.2 °F 72% 29.60 in 10.0 mi South 13.8 mph - N/A   Clear
5:15 AM 55.8 °F 47.7 °F 74% 29.60 in 10.0 mi South 12.7 mph - N/A   Clear
5:35 AM 55.4 °F 47.5 °F 75% 29.61 in 10.0 mi South 16.1 mph 19.6 mph N/A   Clear
5:55 AM 55.4 °F 47.3 °F 74% 29.60 in 10.0 mi South 16.1 mph 20.7 mph N/A   Clear
6:15 AM 55.0 °F 47.3 °F 75% 29.61 in 10.0 mi South 16.1 mph 21.9 mph N/A   Clear
6:35 AM 54.9 °F 47.3 °F 76% 29.60 in 10.0 mi South 15.0 mph - N/A   Clear
6:55 AM 54.9 °F 47.1 °F 75% 29.60 in 10.0 mi South 15.0 mph 20.7 mph N/A   Clear
7:15 AM 54.5 °F 47.3 °F 77% 29.59 in 10.0 mi South 15.0 mph - N/A   Clear
7:35 AM 54.7 °F 47.5 °F 77% 29.59 in 10.0 mi South 15.0 mph 23.0 mph N/A   Clear
7:55 AM 55.8 °F 48.0 °F 75% 29.59 in 10.0 mi South 12.7 mph 19.6 mph N/A   Clear
8:15 AM 56.8 °F 48.6 °F 74% 29.59 in 10.0 mi South 16.1 mph 21.9 mph N/A   Clear
8:35 AM 57.7 °F 49.3 °F 73% 29.59 in 10.0 mi South 15.0 mph 19.6 mph N/A   Clear
8:55 AM 59.4 °F 50.2 °F 72% 29.59 in 10.0 mi South 17.3 mph 21.9 mph N/A   Clear
9:15 AM 59.7 °F 50.4 °F 71% 29.58 in 10.0 mi South 15.0 mph 21.9 mph N/A   Clear
9:35 AM 60.6 °F 50.9 °F 70% 29.58 in 10.0 mi South 15.0 mph 21.9 mph N/A   Clear
9:55 AM 61.7 °F 50.9 °F 68% 29.58 in 10.0 mi South 13.8 mph 24.2 mph N/A   Clear
10:15 AM 62.1 °F 50.7 °F 66% 29.57 in 10.0 mi South 15.0 mph 20.7 mph N/A   Clear
10:35 AM 64.9 °F 51.4 °F 62% 29.57 in 10.0 mi South 17.3 mph 27.6 mph N/A   Scattered Clouds
10:55 AM 65.8 °F 52.0 °F 61% 29.56 in 10.0 mi South 17.3 mph 28.8 mph N/A   Scattered Clouds
11:15 AM 66.2 °F 51.8 °F 60% 29.55 in 10.0 mi South 18.4 mph 29.9 mph N/A   Mostly Cloudy
11:35 AM 68.0 °F 52.5 °F 58% 29.54 in 10.0 mi South 27.6 mph 33.4 mph N/A   Scattered Clouds
11:55 AM 69.1 °F 53.1 °F 57% 29.54 in 10.0 mi South 25.3 mph 31.1 mph N/A   Scattered Clouds
12:15 PM 67.6 °F 53.1 °F 59% 29.53 in 10.0 mi South 25.3 mph 31.1 mph N/A   Mostly Cloudy
12:35 PM 67.6 °F 53.2 °F 60% 29.54 in 10.0 mi South 25.3 mph 33.4 mph N/A   Mostly Cloudy
12:55 PM 64.9 °F 52.7 °F 64% 29.53 in 10.0 mi SSW 20.7 mph 33.4 mph N/A   Overcast
1:15 PM 64.4 °F 52.9 °F 66% 29.53 in 10.0 mi South 19.6 mph 24.2 mph N/A   Overcast
1:35 PM 64.9 °F 53.6 °F 67% 29.52 in 10.0 mi SSW 15.0 mph 23.0 mph N/A   Overcast
1:55 PM 64.4 °F 53.1 °F 67% 29.51 in 10.0 mi South 16.1 mph 25.3 mph N/A   Overcast
2:15 PM 64.4 °F 53.2 °F 67% 29.50 in 10.0 mi South 16.1 mph - N/A   Overcast
2:35 PM 64.4 °F 53.6 °F 68% 29.49 in 10.0 mi South 15.0 mph 23.0 mph N/A   Overcast
2:55 PM 62.8 °F 55.4 °F 77% 29.48 in 7.0 mi South 18.4 mph 21.9 mph N/A Rain Light Rain
3:15 PM 60.8 °F 56.3 °F 85% 29.48 in 10.0 mi South 16.1 mph 23.0 mph 0.01 in Rain Light Rain
3:35 PM 60.8 °F 56.5 °F 86% 29.49 in 10.0 mi South 13.8 mph 20.7 mph 0.06 in Rain Light Rain
3:55 PM 60.8 °F 56.7 °F 86% 29.48 in 4.0 mi South 11.5 mph - 0.11 in Rain Light Rain
4:15 PM 60.1 °F 57.2 °F 90% 29.50 in 1.8 mi SSW 10.4 mph - 0.03 in Rain Heavy Rain
4:35 PM 59.9 °F 57.6 °F 92% 29.48 in 2.0 mi South 9.2 mph - 0.14 in Rain Rain
4:55 PM 59.9 °F 57.7 °F 93% 29.47 in 2.0 mi SSE 6.9 mph - 0.16 in Rain Heavy Rain
5:15 PM 59.4 °F 57.6 °F 94% 29.46 in 2.0 mi SSE 6.9 mph - 0.01 in   Heavy Drizzle
5:35 PM 59.2 °F 57.4 °F 94% 29.45 in 2.5 mi SE 6.9 mph - 0.03 in   Drizzle
5:55 PM 59.2 °F 57.4 °F 94% 29.44 in 2.5 mi ESE 8.1 mph - 0.04 in Rain Rain
6:15 PM 58.6 °F 56.8 °F 94% 29.42 in 7.0 mi East 9.2 mph - 0.01 in   Light Drizzle
6:35 PM 58.6 °F 55.9 °F 91% 29.41 in 10.0 mi East 10.4 mph - 0.01 in   Light Drizzle
6:55 PM 59.0 °F 55.8 °F 89% 29.39 in 10.0 mi ESE 9.2 mph - 0.01 in   Overcast
7:15 PM 59.2 °F 55.4 °F 87% 29.38 in 10.0 mi ESE 11.5 mph - N/A Rain Light Rain
7:35 PM 59.4 °F 55.4 °F 87% 29.36 in 10.0 mi ESE 11.5 mph - N/A Rain Rain
7:55 PM 59.9 °F 55.4 °F 85% 29.35 in 7.0 mi SE 11.5 mph - 0.02 in Rain Light Rain
8:15 PM 60.1 °F 55.4 °F 85% 29.33 in 10.0 mi SE 12.7 mph 19.6 mph N/A Rain Light Rain
8:35 PM 60.1 °F 55.4 °F 85% 29.35 in 10.0 mi SSE 16.1 mph 23.0 mph 0.03 in Rain Light Rain
8:55 PM 59.4 °F 55.0 °F 86% 29.36 in 3.0 mi SSE 26.5 mph 33.4 mph 0.16 in Rain Heavy Rain
9:15 PM 59.0 °F 54.7 °F 86% 29.39 in 5.0 mi SSW 21.9 mph 35.7 mph 0.03 in Rain Light Rain
9:35 PM 58.6 °F 55.0 °F 88% 29.39 in 4.0 mi SSW 9.2 mph - 0.19 in Rain Heavy Rain
9:55 PM 58.5 °F 55.0 °F 88% 29.39 in 7.0 mi SSW 8.1 mph - 0.23 in Rain Light Rain
10:15 PM 58.1 °F 55.4 °F 91% 29.39 in 7.0 mi SW 4.6 mph - 0.01 in Rain Light Rain
10:35 PM 57.2 °F 53.6 °F 88% 29.41 in 10.0 mi WSW 11.5 mph - N/A Rain Light Rain
10:55 PM 55.2 °F 51.6 °F 88% 29.39 in 10.0 mi West 12.7 mph - 0.02 in   Overcast
11:15 PM 54.5 °F 51.1 °F 88% 29.41 in 10.0 mi WSW 15.0 mph - N/A   Overcast
11:35 PM 54.1 °F 50.4 °F 87% 29.41 in 10.0 mi West 15.0 mph 20.7 mph N/A   Overcast
11:55 PM 53.8 °F 50.0 °F 87% 29.40 in 10.0 mi West 11.5 mph - N/A   Overcast